TimeCDT,TemperatureF,Dew PointF,Humidity,Sea Level PressureIn,VisibilityMPH,Wind Direction,Wind SpeedMPH,Gust SpeedMPH,PrecipitationIn,Events,Conditions,WindDirDegrees,DateUTC
12:01 AM,24.8,19.4,80,29.91,10.0,NW,18.4,27.6,N/A,,Overcast,320,2013-03-11 05:01:00
12:09 AM,24.8,19.4,80,29.90,10.0,NW,20.7,27.6,N/A,,Overcast,320,2013-03-11 05:09:00
12:53 AM,25.0,21.0,85,29.94,10.0,NW,16.1,24.2,N/A,,Overcast,320,2013-03-11 05:53:00
1:53 AM,25.0,19.9,81,29.93,10.0,NW,19.6,28.8,N/A,,Overcast,320,2013-03-11 06:53:00
2:50 AM,24.8,19.4,80,29.89,10.0,NW,12.7,23.0,N/A,,Overcast,320,2013-03-11 07:50:00
2:53 AM,25.0,19.9,81,29.93,10.0,NW,11.5,21.9,N/A,,Overcast,320,2013-03-11 07:53:00
3:53 AM,24.1,19.9,84,29.92,10.0,NW,13.8,-,N/A,,Overcast,310,2013-03-11 08:53:00
4:53 AM,24.1,19.0,81,29.90,10.0,NW,18.4,25.3,N/A,,Overcast,320,2013-03-11 09:53:00
5:53 AM,23.0,18.0,81,29.91,5.0,NW,16.1,25.3,0.00,Snow,Light Snow,310,2013-03-11 10:53:00
6:04 AM,23.0,17.6,80,29.88,9.0,WNW,13.8,-,0.00,,Overcast,300,2013-03-11 11:04:00
6:53 AM,21.9,16.0,78,29.94,10.0,NW,12.7,-,0.00,,Overcast,310,2013-03-11 11:53:00
7:53 AM,21.9,16.0,78,29.95,10.0,NW,11.5,20.7,N/A,,Overcast,310,2013-03-11 12:53:00
8:53 AM,21.9,16.0,78,29.97,10.0,NW,12.7,21.9,N/A,,Overcast,310,2013-03-11 13:53:00
9:53 AM,23.0,17.1,78,29.98,10.0,WNW,15.0,20.7,N/A,,Overcast,300,2013-03-11 14:53:00
10:53 AM,23.0,17.1,78,29.97,10.0,WNW,16.1,-,N/A,,Overcast,300,2013-03-11 15:53:00
11:53 AM,25.0,19.0,78,29.97,10.0,WNW,15.0,-,N/A,,Overcast,290,2013-03-11 16:53:00
12:53 PM,26.6,17.6,69,29.94,10.0,WNW,12.7,-,N/A,,Overcast,300,2013-03-11 17:53:00
1:53 PM,28.0,19.9,72,29.97,10.0,WNW,15.0,21.9,N/A,,Mostly Cloudy,290,2013-03-11 18:53:00
2:31 PM,28.4,17.6,64,29.92,10.0,NW,9.2,-,N/A,,Scattered Clouds,310,2013-03-11 19:31:00
2:53 PM,30.9,19.9,64,29.94,10.0,NW,11.5,-,N/A,,Partly Cloudy,310,2013-03-11 19:53:00
3:53 PM,33.1,21.0,61,29.94,10.0,WNW,9.2,-,N/A,,Partly Cloudy,300,2013-03-11 20:53:00
4:53 PM,35.1,19.9,54,29.95,10.0,WNW,12.7,17.3,N/A,,Clear,300,2013-03-11 21:53:00
5:53 PM,36.0,19.0,50,29.94,10.0,WNW,8.1,-,N/A,,Clear,300,2013-03-11 22:53:00
6:53 PM,34.0,21.0,59,29.98,10.0,West,10.4,-,N/A,,Scattered Clouds,280,2013-03-11 23:53:00
7:53 PM,32.0,19.9,61,29.98,10.0,WNW,3.5,-,N/A,,Clear,290,2013-03-12 00:53:00
8:53 PM,30.9,19.0,61,29.99,10.0,Calm,Calm,-,N/A,,Clear,0,2013-03-12 01:53:00
9:53 PM,30.9,19.0,61,30.00,10.0,Calm,Calm,-,N/A,,Clear,0,2013-03-12 02:53:00
10:53 PM,28.0,19.9,72,30.02,10.0,Calm,Calm,-,N/A,,Clear,0,2013-03-12 03:53:00
11:53 PM,28.0,19.9,72,30.04,10.0,SW,3.5,-,N/A,,Clear,230,2013-03-12 04:53:00